www.pogodaiklimat.ru

Погода и климат >> Архив погоды >> Португалия >> Сагрес


ПОГОДА в Сагресе

  • Прогноз погоды в Сагресе
  • Монитор погоды в Сагресе

АРХИВ ПОГОДЫ в Сагресе

Время (UTC), дата Ветер
(напр.,м/с)
 
Видим.   Явления Облачность Т
(С)
Тd
(С)
f
(%)
Тe
(С)
Тes
(С)
Комфортность P
(гПа)
Po
(гПа)
Тmin
(С)
Tmax
(С)
R
(мм)
R24
(мм)
S
(см)
13 13.09 н/о н/о +26.0 +14.4 49 1019.0 1016.2
14 13.09 нст 3 н/о н/о +25.3 +14.2 50 +28 +28 жарко 1018.6 1015.8
15 13.09 нст 2 н/о н/о +23.1 +14.0 57 +27 +27 душно 1018.3 1015.5
16 13.09 нст 3 н/о н/о +22.9 +16.2 66 +27 +27 душно 1018.0 1015.3
17 13.09 н/о н/о +22.7 +16.0 66 1018.4 1015.7
18 13.09 нст 4 н/о н/о +22.8 +15.2 62 +27 +27 душно 1018.4 1015.6 +28.2
19 13.09 нст 3 н/о н/о +22.0 +14.9 64 +25 +25 комфорт 1018.7 1015.9
20 13.09 н/о н/о +21.2 +15.3 69 1018.7 1015.9
21 13.09 нст 3 н/о н/о +21.5 +14.3 64 +24 +24 комфорт 1018.9 1016.1
22 13.09 нст 1 н/о н/о +20.6 +16.8 79 +25 +25 комфорт 1019.0 1016.2
23 13.09 нст 2 н/о н/о +19.5 +15.9 80 +22 +22 комфорт 1018.7 1015.9
00 14.09 нст 1 н/о н/о +18.8 +15.4 81 +21 +21 комфорт 1018.5 1015.7
01 14.09 н/о н/о +18.4 +13.0 71 1018.3 1015.5
02 14.09 н/о н/о +18.3 +12.8 70 1017.9 1015.0
03 14.09 нст 3 н/о н/о +17.7 +12.4 71 +18 +18 1017.5 1014.6
04 14.09 н/о н/о +17.1 +12.1 72 1017.2 1014.3
05 14.09 н/о н/о +17.3 +11.9 71 1017.5 1014.6
06 14.09 нст 3 н/о н/о +17.4 +11.8 70 +17 +17 1017.6 1014.8 +16.8
07 14.09 нст 3 н/о н/о +19.3 +12.3 64 +21 +21 комфорт 1017.8 1015.0
08 14.09 н/о н/о +24.0 +13.0 50 1018.0 1015.3
09 14.09 нст 2 н/о н/о +25.4 +14.6 51 +28 +28 жарко 1018.4 1015.6
10 14.09 н/о н/о +26.6 +14.0 46 1018.4 1015.6
11 14.09 нст 4 н/о н/о +27.4 +14.1 44 +30 +30 жарко 1018.3 1015.6
12 14.09 нст 4 н/о н/о +26.8 +15.3 49 +30 +30 душно 1018.1 1015.4
13 14.09 н/о н/о +25.8 +16.4 56 1017.7 1014.9
14 14.09 н/о н/о +25.1 +16.3 58 1017.3 1014.6
15 14.09 нст 3 н/о н/о +24.9 +16.9 61 +29 +29 душно 1017.4 1014.7
16 14.09 нст 3 н/о н/о +24.0 +17.7 68 +28 +28 душно 1017.2 1014.4
17 14.09 н/о н/о +23.2 +17.0 68 1017.4 1014.6
18 14.09 нст 3 н/о н/о +23.7 +15.9 62 +27 +27 жарко 1017.6 1014.8 +27.9
19 14.09 н/о н/о +21.3 +15.8 71 1018.1 1015.3
20 14.09 нст 3 н/о н/о +20.1 +16.4 79 +23 +23 комфорт 1018.6 1015.8
21 14.09 нст 2 н/о н/о +19.5 +15.1 76 +22 +22 комфорт 1019.3 1016.5
22 14.09 н/о н/о +19.4 +15.8 80 1018.8 1016.0
23 14.09 н/о н/о +19.7 +18.3 92 1018.7 1015.8
00 15.09 нст 2 н/о н/о +19.5 +18.6 95 +23 +23 комфорт 1018.2 1015.4
01 15.09 н/о н/о +18.6 +17.1 91 1018.1 1015.3
02 15.09 н/о н/о +19.3 +17.8 91 1017.8 1015.0
03 15.09 нст 1 н/о н/о +18.3 +17.3 94 +20 +20 1017.4 1014.6
04 15.09 н/о н/о +18.3 +17.8 97 1017.5 1014.7
05 15.09 нст 2 н/о н/о +18.6 +17.9 96 +20 +20 1017.6 1014.8
06 15.09 нст 2 н/о н/о +19.0 +18.7 98 +21 +21 комфорт 1017.8 1014.9 +16.4
07 15.09 н/о н/о +19.5 +19.2 98 1018.1 1015.3
08 15.09 нст 2 н/о н/о +21.0 +19.7 92 +27 +27 душно 1018.4 1015.6
09 15.09 нст 3 н/о н/о +22.4 +19.8 85 +28 +28 душно 1018.8 1016.0
10 15.09 н/о н/о +23.0 +19.6 81 1019.1 1016.3
11 15.09 н/о н/о +23.6 +19.8 79 1019.2 1016.4
12 15.09 нст 4 н/о н/о +23.9 +19.9 78 +29 +29 душно 1018.8 1016.1
13 15.09 нст 4 н/о н/о +24.1 +20.2 79 +30 +30 очень
душно
1018.6 1015.8
14 15.09 н/о н/о +23.8 +19.9 79 1018.1 1015.3
15 15.09 нст 4 н/о н/о +23.3 +19.7 80 +30 +30 очень
душно
1017.6 1014.8
16 15.09 нст 4 н/о н/о +23.1 +19.7 81 +30 +30 очень
душно
1017.8 1015.0
17 15.09 нст 3 н/о н/о +23.5 +19.8 80 +29 +29 душно 1017.7 1014.9
18 15.09 нст 3 н/о н/о +22.4 +19.9 86 +29 +29 очень
душно
1017.9 1015.1 +24.9
19 15.09 н/о н/о +20.9 +19.7 93 1018.0 1015.2
20 15.09 н/о н/о +20.3 +19.1 93 1018.4 1015.6
21 15.09 нст 3 н/о н/о +19.8 +18.7 93 +23 +23 комфорт 1018.9 1016.1
22 15.09 н/о н/о +19.6 +18.6 94 1018.9 1016.1
23 15.09 н/о н/о +19.3 +18.5 95 1019.1 1016.3
00 16.09 нст 3 н/о н/о +19.1 +18.4 96 +21 +21 комфорт 1019.0 1016.2
01 16.09 н/о н/о +18.9 +17.8 93 1018.4 1015.6
02 16.09 нст 5 н/о н/о +18.4 +17.3 93 +19 +19 1018.0 1015.2
03 16.09 нст 5 н/о н/о +18.0 +17.0 94 +18 +18 1017.8 1015.0
04 16.09 н/о н/о +18.0 +17.0 94 1017.5 1014.6
05 16.09 нст 3 н/о н/о +17.6 +16.8 95 +18 +18 1017.6 1014.8
06 16.09 нст 3 н/о н/о +17.4 +16.7 96 +17 +17 1017.7 1014.9 +17.3
07 16.09 н/о н/о +17.7 +16.9 95 1018.1 1015.2
08 16.09 н/о н/о +19.3 +17.4 89 1018.8 1016.0
09 16.09 нст 6 н/о н/о +20.9 +17.4 80 +25 +25 комфорт 1019.3 1016.5
10 16.09 нст 5 н/о н/о +22.2 +17.3 74 +27 +27 душно 1019.5 1016.7
11 16.09 нст 5 н/о н/о +24.1 +17.1 65 +28 +28 душно 1019.4 1016.6
12 16.09 нст 5 н/о н/о +24.4 +17.0 63 +28 +28 душно 1019.0 1016.2
13 16.09 н/о н/о +24.9 +17.2 62 1018.6 1015.8
14 16.09 нст 5 н/о н/о +25.2 +17.2 61 +29 +29 душно 1018.1 1015.3
15 16.09 нст 5 н/о н/о +24.2 +17.4 66 +28 +28 душно 1017.8 1015.0
16 16.09 н/о н/о +22.8 +17.5 72 1017.6 1014.8
17 16.09 н/о н/о +22.5 +17.9 75 1017.4 1014.6
18 16.09 нст 5 н/о н/о +21.5 +17.5 78 +26 +26 душно 1017.1 1014.3 +25.8
19 16.09 нст 3 н/о н/о +20.0 +17.2 84 +23 +23 комфорт 1017.0 1014.2
20 16.09 н/о н/о +19.8 +17.4 86 1017.2 1014.4
21 16.09 нст 3 н/о н/о +19.7 +17.7 88 +23 +23 комфорт 1017.3 1014.5
22 16.09 н/о н/о +19.3 +16.9 86 1017.4 1014.5
23 16.09 нст 3 н/о н/о +18.9 +17.0 89 +20 +20 1017.4 1014.5
00 17.09 нст 2 н/о н/о +18.1 +16.6 91 +19 +19 1016.8 1014.0
01 17.09 н/о н/о +18.0 +16.6 92 1016.4 1013.6
02 17.09 н/о н/о +17.0 +15.8 93 1016.2 1013.4
03 17.09 нст 2 н/о н/о +16.6 +15.8 95 +17 +17 1015.9 1013.1
04 17.09 нст 2 н/о н/о +17.5 +16.7 95 +18 +18 1015.8 1012.9
05 17.09 н/о н/о +16.5 +15.7 95 1015.4 1012.6
06 17.09 нст 2 н/о н/о +16.7 +15.5 93 +17 +17 1015.7 1012.8 +16.3
07 17.09 нст 2 н/о н/о +16.7 +15.7 94 +17 +17 1016.0 1013.2
08 17.09 нст 3 н/о н/о +18.2 +17.3 94 +19 +19 1016.4 1013.5
09 17.09 нст 3 н/о н/о +22.3 +16.3 69 +27 +27 душно 1016.7 1013.9
10 17.09 н/о н/о +23.1 +16.1 65 1016.8 1014.0
11 17.09 н/о н/о +22.9 +15.9 65 1016.6 1013.9
12 17.09 нст 4 н/о н/о +23.6 +16.0 62 +27 +27 жарко 1016.3 1013.5
13 17.09 н/о н/о +23.0 +16.6 67 1015.9 1013.1
14 17.09 н/о н/о +22.6 +18.0 75 1016.1 1013.3
15 17.09 нст 5 н/о н/о +21.9 +17.9 78 +27 +27 душно 1015.5 1012.7
16 17.09 н/о н/о +22.8 +17.5 72 1015.3 1012.5
17 17.09 н/о н/о +22.2 +18.2 78 1015.2 1012.4
18 17.09 нст 4 н/о н/о +21.1 +17.5 80 +25 +25 комфорт 1015.0 1012.3 +25.0
19 17.09 н/о н/о +20.4 +17.4 83 1015.2 1012.4
20 17.09 нст 3 н/о н/о +19.6 +17.0 85 +22 +22 комфорт 1015.7 1012.9
21 17.09 нст 2 н/о н/о +17.9 +16.0 89 +18 +18 1016.1 1013.3
22 17.09 н/о н/о +18.1 +16.4 90 1016.4 1013.5
23 17.09 н/о н/о +17.3 +16.0 92 1016.0 1013.2
00 18.09 нст 2 н/о н/о +16.3 +15.4 94 +16 +16 1016.2 1013.3
01 18.09 нст 2 н/о н/о +15.9 +15.2 96 +16 +16 1015.8 1012.9
02 18.09 н/о н/о +15.9 +14.9 94 1015.5 1012.7
03 18.09 нст 2 н/о н/о +15.7 +15.0 96 +16 +16 1015.3 1012.4
04 18.09 н/о н/о +14.7 +14.0 96 1015.3 1012.4
05 18.09 штиль 0 н/о н/о +14.3 +13.7 96 +14 +14 1015.3 1012.5
06 18.09 нст 1 н/о н/о +14.9 +14.4 97 +15 +15 1015.7 1012.8 +13.6
07 18.09 н/о н/о +16.2 +15.6 96 1016.3 1013.5
08 18.09 н/о н/о +19.2 +17.4 89 1016.7 1013.9
09 18.09 нст 1 н/о н/о +20.9 +16.7 77 +26 +26 душно 1017.2 1014.4
10 18.09 н/о н/о +22.0 +17.6 76 1017.4 1014.6
11 18.09 н/о н/о +23.2 +17.5 70 1017.8 1015.1
12 18.09 нст 3 н/о н/о +22.6 +17.8 74 +28 +28 душно 1017.7 1014.9
13 18.09 нст 3 н/о н/о +24.0 +18.5 71 +28 +28 душно 1017.4 1014.7
14 18.09 нст 3 н/о н/о +23.3 +18.8 76 +30 +30 очень
душно
1017.0 1014.2
15 18.09 нст 3 н/о н/о +22.9 +19.2 80 +29 +29 очень
душно
1017.1 1014.4
16 18.09 н/о н/о +22.1 +19.2 84 1016.7 1013.9
17 18.09 н/о н/о +22.6 +19.2 81 1016.6 1013.8
18 18.09 нст 4 н/о н/о +21.6 +18.6 83 +26 +26 душно 1016.8 1014.0 +24.5
19 18.09 н/о н/о +20.5 +18.0 86 1016.9 1014.1
20 18.09 н/о н/о +20.2 +18.5 90 1017.2 1014.4
21 18.09 нст 4 н/о н/о +19.9 +18.2 90 +23 +23 комфорт 1017.3 1014.5
22 18.09 нст 4 н/о н/о +19.1 +17.5 90 +21 +21 комфорт 1017.8 1015.0
23 18.09 н/о н/о +18.8 +17.7 93 1017.6 1014.8
00 19.09 нст 2 н/о н/о +18.4 +17.7 96 +20 +20 1017.5 1014.6
01 19.09 н/о н/о +18.0 +17.3 96 1017.3 1014.5
02 19.09 нст 2 н/о н/о +17.9 +17.2 96 +18 +18 1017.0 1014.2
03 19.09 нст 3 н/о н/о +17.6 +16.6 94 +18 +18 1016.8 1014.0
04 19.09 н/о н/о +16.4 +15.1 92 1016.7 1013.9
05 19.09 н/о н/о +16.1 +15.0 93 1016.7 1013.9
06 19.09 нст 2 н/о н/о +16.1 +15.0 93 +16 +16 1016.9 1014.1 +15.7
07 19.09 нст 2 н/о н/о +16.3 +15.1 93 +16 +16 1017.0 1014.1
08 19.09 н/о н/о +19.7 +15.9 79 1017.4 1014.6
09 19.09 нст 4 н/о н/о +22.6 +15.5 64 +27 +27 душно 1017.8 1015.0
10 19.09 н/о н/о +23.9 +15.2 58 1017.9 1015.2
11 19.09 нст 5 н/о н/о +24.3 +16.0 60 +28 +28 душно 1017.4 1014.7
12 19.09 нст 5 н/о н/о +23.9 +15.8 60 +27 +27 жарко 1017.5 1014.7
13 19.09 н/о н/о +22.9 +15.5 63 1017.5 1014.7
14 19.09 н/о н/о +23.6 +15.7 61 1016.8 1014.0
15 19.09 нст 5 н/о н/о +22.6 +15.9 66 +27 +27 душно 1016.5 1013.7
16 19.09 н/о н/о +22.8 +16.0 65 1016.2 1013.4
17 19.09 н/о н/о +21.0 +16.2 74 1015.8 1013.0
18 19.09 нст 5 н/о н/о +20.4 +16.6 79 +23 +23 комфорт 1015.7 1012.9 +25.8
19 19.09 нст 5 н/о н/о +19.5 +16.9 85 +21 +21 комфорт 1016.0 1013.2
20 19.09 н/о н/о +19.4 +17.2 87 1016.4 1013.6
21 19.09 нст 4 н/о н/о +19.3 +17.5 89 +21 +21 комфорт 1016.7 1013.9
22 19.09 нст 4 н/о н/о +19.6 +17.4 87 +22 +22 комфорт 1016.4 1013.6
23 19.09 нст 3 н/о н/о +19.1 +17.3 89 +21 +21 комфорт 1016.1 1013.3
00 20.09 нст 3 н/о н/о +18.6 +17.0 90 +20 +20 1015.9 1013.1
01 20.09 н/о н/о +18.3 +16.9 92 1015.6 1012.8
02 20.09 н/о н/о +18.0 +16.9 93 1015.2 1012.4
03 20.09 нст 2 н/о н/о +17.8 +16.6 93 +18 +18 1014.8 1012.0
04 20.09 нст 2 н/о н/о +17.2 +16.2 94 +18 +18 1014.8 1012.0
05 20.09 н/о н/о +16.6 +15.8 95 1014.4 1011.6
06 20.09 нст 1 н/о н/о +16.7 +16.0 96 +18 +18 1014.6 1011.8 +16.3
07 20.09 нст 2 н/о н/о +16.4 +15.5 94 +16 +16 1014.9 1012.0
08 20.09 нст 3 н/о н/о +20.2 +17.2 83 +24 +24 комфорт 1015.3 1012.5
09 20.09 н/о н/о +22.2 +16.5 70 1015.5 1012.7
10 20.09 н/о н/о +21.2 +17.1 77 1015.7 1012.9
11 20.09 н/о н/о +20.6 +17.5 82 1015.2 1012.4

 

Местоположение метеостанции Сагрес (Португалия): широта 37.00 долгота -8.95 высота над уровнем моря 26 м.

В архиве по умолчанию представлена погода в Сагресе за последнюю неделю. Архивные данные за месяц целиком и за предыдущие месяцы, начиная с января 2011 года, Вы можете получить, выбрав интересующий диапазон дат из раскрывающегося списка и нажав кнопку "Ввод!".


*Определитесь, кто Вы:
робот инопланетянин человек

Внимание! Время в таблицах - всемирное. Для получения местного времени необходимо прибавить поправку, которая равна 0 ч.

Смотрите также архив погоды в соседних городах и на ближайших метеорологических станциях:

Погода в Фару (Португалия) (87 км)
Погода в Синише (Португалия) (106 км)
Погода в Айямонте - Исла Канель (Испания) (140 км)
Погода в Беже (Португалия) (148 км)
Погода в Бежа аэропорту (Португалия) (150 км)
Погода в Уэльве (Испания) (183 км)
Погода в Монтижу (Португалия) (189 км)
Погода в Лиссабоне (Португалия) (192 км)
Погода в Эворе (Португалия) (194 км)
Погода в Эль-Ареносильо (Испания) (196 км)

Пояснения к столбцам:

Ветер - указаны скорость ветра в м/с - средняя за 10 мин, порывы в срок и между сроками (в фигурных скобках) и направление, откуда дует ветер: С - северный, СВ - северо-восточный, В - восточный, ЮВ - юго-восточный, Ю - южный, ЮЗ - юго-западный, З - западный, СЗ - северо-западный.
Видимость - горизонтальная дальность видимости в метрах или километрах. При видимости от 1 до 10 км при отсутствии осадков обычно наблюдается дымка, при ухудшении видимости до 1 км и менее - туман. В сухую погоду видимость может ухудшаться дымом, пылью или мглою.
Явления - указаны атмосферные явления, наблюдавшиеся в срок или в последний час перед сроком; фигурными скобками обозначены явления, наблюдавшиеся между сроками (за 1-3 часа до срока); квадратными скобками обозначены град или гололедные отложения с указанием их диаметра в мм.
Облачность - указаны через наклонную черту общая и нижняя облачность в баллах и высота нижней границы облаков в метрах; квадратными скобками обозначены формы облаков: Ci - перистые, Cs - перисто-слоистые, Cc - перисто-кучевые, Ac - высококучевые, As - высокослоистые, Sc - слоисто-кучевые, Ns - слоисто-дождевые, Cu - кучевые, Cb - кучево-дождевые. Подробнее классификацию облаков см. в Атласе облаков (PDF).
T - Температура воздуха - температура, измеренная на высоте 2 м над землей.
Td - Температура точки росы - температура, при понижении до которой содержащийся в воздухе водяной пар достигнет насыщения.
f - Относительная влажность воздуха - влажноcть воздуха, измеренная на высоте 2 м над землей.
Te - Эффективная температура - температура, которую ощущает одетый по сезону человек в тени. Характеристика душности погоды. При расчете учитывается влияние влажности воздуха и скорости ветра на теплоощущения человека.
Tes - Эффективная температура на солнце - температура, которую ощущает человек, с поправкой на солнечный нагрев. Характеристика знойности погоды. Зависит от высоты солнца над горизонтом, облачности и скорости ветра. Ночью, в пасмурную погоду, а также при ветре 12 м/с и более поправка равна нулю.
P - Атмосферное давление - приведенное к уровню моря атмосферное давление.
Po - Атмосферное давление - измеренное на уровне метеостанции атмосферное давление.
Tmin - Минимальная температура - минимум температуры воздуха на высоте 2 м над землей.
Tmax - Максимальная температура - максимум температуры воздуха на высоте 2 м над землей.
R - Количество осадков - Количество выпавших осадков за период времени, мм. При наведении курсора мыши на число - период времени, за который выпало указанное количество осадков.
R24 - Количество осадков - Количество выпавших осадков за 24 часа, мм.
S - Снежный покров - Высота снежного покрова, см. При наведении курсора мыши на число - состояние снежного покрова и степень покрытия местности в баллах.